• In Deutschland
  • Länderverzeichnis
  • Für 7 Tage
  • Wassertemperatur
  • Satellitenkarten
  • Wetterkarte
  • Widgets
  • user-avatar
    Anmelden

    Stündliche Wetter Kreuth

    Heute, 22 Juli, Sonntag

    Zeit Temperatur Niederschläge Wind Luftdruck Luftfeuchtigkeit
    00:00 +10°C° 0,7 mm 2 m/S 638 mmHg 96%
    01:00 +10°C° 0 mm 2 m/S 638 mmHg 98%
    02:00 +10°C° 0,5 mm 2 m/S 638 mmHg 97%
    03:00 +10°C° 0,5 mm 2 m/S 638 mmHg 97%
    04:00 +9°C° 0,5 mm 2 m/S 637 mmHg 97%
    05:00 +9°C° 0,2 mm 2 m/S 638 mmHg 96%
    06:00 +10°C° 0,2 mm 2 m/S 638 mmHg 96%
    07:00 +10°C° 0,2 mm 2 m/S 638 mmHg 95%
    08:00 +12°C° 0,1 mm 2 m/S 638 mmHg 91%
    09:00 +13°C° 0,1 mm 2 m/S 638 mmHg 88%
    10:00 +14°C° 0,1 mm 2 m/S 639 mmHg 84%
    11:00 +14°C° 0,4 mm 2 m/S 639 mmHg 82%
    12:00 +15°C° 0,4 mm 2 m/S 639 mmHg 81%
    13:00 +16°C° 0,4 mm 2 m/S 639 mmHg 79%
    14:00 +16°C° 0,8 mm 2 m/S 639 mmHg 81%
    15:00 +16°C° 0,8 mm 2 m/S 639 mmHg 84%
    16:00 +16°C° 0,8 mm 1 m/S 639 mmHg 86%
    17:00 +15°C° 0,8 mm 1 m/S 639 mmHg 89%
    18:00 +14°C° 0,8 mm 1 m/S 639 mmHg 91%
    19:00 +14°C° 0,8 mm 1 m/S 639 mmHg 94%
    20:00 +13°C° 0,8 mm 1 m/S 639 mmHg 95%
    21:00 +12°C° 0,8 mm 1 m/S 639 mmHg 96%
    22:00 +11°C° 0,8 mm 1 m/S 639 mmHg 97%
    23:00 +11°C° 0,4 mm 1 m/S 639 mmHg 97%

    Morgen, 23 Juli, Montag

    Zeit Temperatur Niederschläge Wind Luftdruck Luftfeuchtigkeit
    00:00 +11°C° 0,4 mm 1 m/S 639 mmHg 97%
    01:00 +11°C° 0,4 mm 1 m/S 639 mmHg 97%
    02:00 +11°C° 0,8 mm 1 m/S 639 mmHg 97%
    03:00 +11°C° 0,8 mm 1 m/S 639 mmHg 97%
    04:00 +10°C° 0,8 mm 1 m/S 639 mmHg 98%
    05:00 +11°C° 0,7 mm 1 m/S 639 mmHg 97%
    06:00 +11°C° 0,7 mm 1 m/S 640 mmHg 97%
    07:00 +12°C° 0,7 mm 1 m/S 640 mmHg 97%
    08:00 +13°C° 0,3 mm 1 m/S 640 mmHg 92%
    09:00 +14°C° 0,3 mm 1 m/S 641 mmHg 87%
    10:00 +15°C° 0,3 mm 1 m/S 641 mmHg 82%
    11:00 +16°C° 0,5 mm 1 m/S 642 mmHg 79%
    12:00 +17°C° 0,6 mm 2 m/S 642 mmHg 75%
    13:00 +18°C° 0,6 mm 2 m/S 642 mmHg 71%
    14:00 +18°C° 0,6 mm 2 m/S 642 mmHg 73%
    15:00 +18°C° 0,6 mm 2 m/S 642 mmHg 74%
    16:00 +18°C° 0,6 mm 2 m/S 642 mmHg 75%
    17:00 +18°C° 0,4 mm 1 m/S 642 mmHg 79%
    18:00 +16°C° 0,4 mm 1 m/S 641 mmHg 83%
    19:00 +15°C° 0,4 mm 1 m/S 641 mmHg 88%
    20:00 +14°C° 0,1 mm 1 m/S 641 mmHg 90%
    21:00 +12°C° 0,1 mm 1 m/S 641 mmHg 92%
    22:00 +11°C° 0,1 mm 1 m/S 641 mmHg 94%
    23:00 +11°C° 0 mm 1 m/S 641 mmHg 94%

    übermorgen, 24 Juli, Dienstag

    Zeit Temperatur Niederschläge Wind Luftdruck Luftfeuchtigkeit
    00:00 +10°C° 0 mm 1 m/S 641 mmHg 94%
    01:00 +10°C° 0 mm 1 m/S 640 mmHg 94%
    02:00 +9°C° 0 mm 1 m/S 640 mmHg 93%
    03:00 +9°C° 0 mm 1 m/S 640 mmHg 93%
    04:00 +9°C° 0 mm 1 m/S 639 mmHg 92%
    05:00 +10°C° 0 mm 1 m/S 640 mmHg 89%
    06:00 +12°C° 0 mm 1 m/S 640 mmHg 86%
    07:00 +12°C° 0 mm 0 m/S 641 mmHg 83%
    08:00 +15°C° 0 mm 1 m/S 641 mmHg 74%
    09:00 +18°C° 0 mm 1 m/S 642 mmHg 65%
    10:00 +19°C° 0 mm 2 m/S 642 mmHg 56%
    11:00 +20°C° 0 mm 2 m/S 642 mmHg 54%
    12:00 +21°C° 0 mm 2 m/S 642 mmHg 51%
    13:00 +23°C° 0 mm 2 m/S 642 mmHg 49%
    14:00 +23°C° 0 mm 2 m/S 642 mmHg 51%
    15:00 +22°C° 0 mm 3 m/S 641 mmHg 53%
    16:00 +21°C° 0 mm 3 m/S 641 mmHg 54%
    17:00 +20°C° 0 mm 2 m/S 641 mmHg 63%
    18:00 +19°C° 0 mm 2 m/S 640 mmHg 72%
    19:00 +18°C° 0 mm 1 m/S 640 mmHg 80%
    20:00 +16°C° 0 mm 1 m/S 640 mmHg 85%
    21:00 +14°C° 0 mm 1 m/S 640 mmHg 90%
    22:00 +12°C° 0 mm 1 m/S 639 mmHg 94%
    23:00 +12°C° 0 mm 1 m/S 639 mmHg 95%

    25 Juli, Mittwoch

    Zeit Temperatur Niederschläge Wind Luftdruck Luftfeuchtigkeit
    00:00 +11°C° 0 mm 1 m/S 639 mmHg 95%
    01:00 +11°C° 0 mm 1 m/S 639 mmHg 95%
    02:00 +11°C° 0 mm 1 m/S 639 mmHg 96%
    03:00 +11°C° 0 mm 1 m/S 639 mmHg 96%
    04:00 +10°C° 0 mm 1 m/S 639 mmHg 96%
    05:00 +12°C° 0 mm 1 m/S 639 mmHg 92%
    06:00 +13°C° 0 mm 1 m/S 640 mmHg 89%
    07:00 +13°C° 0 mm 0 m/S 640 mmHg 86%
    08:00 +16°C° 0 mm 1 m/S 641 mmHg 75%
    09:00 +19°C° 0 mm 1 m/S 641 mmHg 64%
    10:00 +21°C° 0 mm 1 m/S 642 mmHg 54%
    11:00 +22°C° 0 mm 1 m/S 642 mmHg 51%
    12:00 +23°C° 0 mm 2 m/S 642 mmHg 48%
    13:00 +23°C° 0 mm 2 m/S 642 mmHg 45%
    14:00 +23°C° 0 mm 2 m/S 642 mmHg 47%
    15:00 +23°C° 0 mm 2 m/S 641 mmHg 49%
    16:00 +23°C° 0 mm 2 m/S 641 mmHg 50%
    17:00 +20°C° 0 mm 2 m/S 641 mmHg 59%
    18:00 +20°C° 0 mm 1 m/S 641 mmHg 69%
    19:00 +19°C° 0 mm 1 m/S 640 mmHg 78%
    20:00 +16°C° 0 mm 1 m/S 640 mmHg 82%
    21:00 +14°C° 0 mm 1 m/S 640 mmHg 87%
    22:00 +13°C° 0 mm 1 m/S 640 mmHg 92%
    23:00 +13°C° 0 mm 1 m/S 640 mmHg 93%

    26 Juli, Donnerstag

    Zeit Temperatur Niederschläge Wind Luftdruck Luftfeuchtigkeit
    00:00 +12°C° 0 mm 1 m/S 640 mmHg 93%
    01:00 +12°C° 0 mm 1 m/S 639 mmHg 94%
    02:00 +11°C° 0 mm 1 m/S 639 mmHg 94%
    03:00 +11°C° 0 mm 1 m/S 639 mmHg 94%
    04:00 +11°C° 0 mm 1 m/S 639 mmHg 94%
    05:00 +12°C° 0 mm 1 m/S 640 mmHg 89%
    06:00 +13°C° 0 mm 1 m/S 640 mmHg 84%
    07:00 +14°C° 0 mm 1 m/S 641 mmHg 79%
    08:00 +16°C° 0,1 mm 1 m/S 641 mmHg 73%
    09:00 +19°C° 0,1 mm 1 m/S 642 mmHg 67%
    10:00 +21°C° 0,1 mm 1 m/S 642 mmHg 61%
    11:00 +22°C° 0,5 mm 1 m/S 642 mmHg 62%
    12:00 +21°C° 0,5 mm 2 m/S 642 mmHg 62%
    13:00 +21°C° 0,5 mm 2 m/S 642 mmHg 63%
    14:00 +21°C° 0,6 mm 2 m/S 642 mmHg 64%
    15:00 +21°C° 0,6 mm 2 m/S 642 mmHg 65%
    16:00 +21°C° 0,6 mm 2 m/S 642 mmHg 66%
    17:00 +20°C° 0,3 mm 1 m/S 642 mmHg 72%
    18:00 +19°C° 0,3 mm 1 m/S 641 mmHg 77%
    19:00 +18°C° 0,3 mm 1 m/S 641 mmHg 83%
    20:00 +16°C° 0 mm 1 m/S 641 mmHg 86%
    21:00 +14°C° 0 mm 1 m/S 641 mmHg 89%
    22:00 +13°C° 0 mm 1 m/S 641 mmHg 92%
    23:00 +12°C° 0 mm 1 m/S 641 mmHg 92%

    27 Juli, Freitag

    Zeit Temperatur Niederschläge Wind Luftdruck Luftfeuchtigkeit
    00:00 +12°C° 0 mm 1 m/S 641 mmHg 93%
    01:00 +11°C° 0 mm 1 m/S 640 mmHg 93%
    02:00 +11°C° 0 mm 1 m/S 640 mmHg 92%
    03:00 +11°C° 0 mm 1 m/S 640 mmHg 90%
    04:00 +10°C° 0 mm 1 m/S 639 mmHg 89%
    05:00 +12°C° 0 mm 1 m/S 640 mmHg 85%
    06:00 +13°C° 0 mm 1 m/S 640 mmHg 81%
    07:00 +14°C° 0 mm 1 m/S 641 mmHg 77%
    08:00 +18°C° 0 mm 1 m/S 641 mmHg 68%
    09:00 +20°C° 0 mm 1 m/S 642 mmHg 59%
    10:00 +22°C° 0 mm 1 m/S 642 mmHg 50%
    11:00 +23°C° 0 mm 1 m/S 642 mmHg 48%
    12:00 +24°C° 0 mm 2 m/S 642 mmHg 45%
    13:00 +24°C° 0 mm 2 m/S 642 mmHg 42%
    14:00 +24°C° 0 mm 2 m/S 642 mmHg 44%
    15:00 +24°C° 0 mm 2 m/S 642 mmHg 46%
    16:00 +24°C° 0 mm 2 m/S 642 mmHg 48%
    17:00 +21°C° 0 mm 2 m/S 641 mmHg 58%
    18:00 +20°C° 0 mm 1 m/S 641 mmHg 67%
    19:00 +19°C° 0 mm 1 m/S 641 mmHg 77%
    20:00 +16°C° 0 mm 1 m/S 640 mmHg 82%
    21:00 +15°C° 0 mm 1 m/S 640 mmHg 86%
    22:00 +13°C° 0 mm 1 m/S 640 mmHg 91%
    23:00 +13°C° 0 mm 1 m/S 640 mmHg 91%
    Mehr zeigen